User: anonymous   Login
Location: Gipe Farm
(40.9466°N, 95.5370°W)
Time: 22:37:35
(UTC-05:00)
Language:

Cosmos 2082 Rocket - Orbit

View from above orbital plane
View from above orbital plane
View from above satellite
View from above satellite

Ground track
Ground track

The orbit data is extracted from the following two-line orbital elements,

1 20625U 90046B   17177.40053730 +.00000261 +00000-0 +16047-3 0  9999
2 20625 070.9990 129.8019 0012253 094.1317 266.1206 14.14617810399141
Epoch (UTC): 26 June 2017 09:36:46
Eccentricity: 0.0012253
inclination: 70.9990°
perigee height: 835 km
apogee height: 852 km
right ascension of ascending node: 129.8019°
argument of perigee: 94.1317°
revolutions per day: 14.14617810
mean anomaly at epoch: 266.1206°
orbit number at epoch: 39914

The dashed part of the orbit path shows where the satellite is in the earth's shadow,  

DLR